Edwards AFB North Base, CA

12:29 PM PST on February 24, 2018 (GMT -0800)
Edwards AFB North Base

Weather History for K9L2 - June, 2013

Change the Weather History Date:

Sunday, June 16, 2013

  Actual Average (KEDW) Record (KEDW)
Temperature  
Mean Temperature 76 °F -  
Max Temperature 95 °F 91 °F 105 °F (2000)
Min Temperature 60 °F 60 °F 52 °F (2016)
Cooling Degree Days 12    
Growing Degree Days 26 (Base 50)    
Moisture  
Dew Point 25 °F    
Average Humidity 17    
Maximum Humidity 34    
Minimum Humidity 6    
Precipitation  
Precipitation 0.00 in - - ()
Sea Level Pressure  
Sea Level Pressure 29.89 in    
Wind  
Wind Speed 10 mph (SW)    
Max Wind Speed 25 mph    
Max Gust Speed 31 mph    
Visibility 10 miles    
Events      
Averages and records for this station are not official NWS values.
T = Trace of Precipitation, MM = Missing Value Source: NWS Daily Summary

Daily Weather History Graph

Daily Weather History Graph

Search for Another Location

Airport or City:

Trip Planner

Search our weather history database for the weather conditions in past years. The results will help you decide how hot, cold, wet, or windy it might be!

Date:

Astronomy

Jun. 16, 2013 Rise Set
Actual Time 5:37 AM PDT 8:07 PM PDT
Civil Twilight 5:07 AM PDT 8:37 PM PDT
Nautical Twilight 4:30 AM PDT 9:13 PM PDT
Astronomical Twilight 3:50 AM PDT 9:54 PM PDT
Moon 1:01 PM PDT (6/16) 12:29 AM PDT (6/16)
Length of Visible Light 15h 29m
Length of Day
14h 30m
Waxing Crescent, 51% of the Moon is Illuminated
Jun 16
Waxing Crescent
Jun 23
Full
Jun 29
Last Quarter
Jul 8
New
Jul 15
First Quarter

Hourly Weather History & Observations

Time (PDT) Temp. Dew Point Humidity Pressure Visibility Wind Dir Wind Speed Gust Speed Precip Events Conditions
12:55 AM 64.0 °F 35.1 °F 34% 29.87 in 10.0 mi South 4.6 mph - N/A   Clear
1:55 AM 63.0 °F 30.0 °F 29% 29.86 in 10.0 mi South 13.8 mph - N/A   Clear
2:55 AM 62.1 °F 30.0 °F 30% 29.86 in 10.0 mi SSW 8.1 mph - N/A   Clear
3:55 AM 61.0 °F 28.0 °F 29% 29.86 in 10.0 mi West 5.8 mph - N/A   Clear
4:55 AM 61.0 °F 28.9 °F 30% 29.87 in 10.0 mi SSW 4.6 mph - N/A   Clear
5:55 AM 60.1 °F 28.0 °F 30% 29.89 in 10.0 mi South 11.5 mph - N/A   Clear
6:55 AM 66.0 °F 30.9 °F 27% 29.91 in 10.0 mi South 5.8 mph - N/A   Clear
7:55 AM 73.0 °F 34.0 °F 24% 29.91 in 10.0 mi South 11.5 mph - N/A   Clear
8:55 AM 80.1 °F 28.0 °F 15% 29.92 in 10.0 mi SSW 9.2 mph - N/A   Clear
9:55 AM 84.0 °F 26.1 °F 12% 29.92 in 10.0 mi WNW 5.8 mph - N/A   Clear
10:55 AM 86.0 °F 24.1 °F 10% 29.91 in 10.0 mi South 5.8 mph - N/A   Clear
11:55 AM 91.0 °F 21.9 °F 8% 29.90 in 10.0 mi Variable 6.9 mph - N/A   Clear
12:55 PM 91.0 °F 15.1 °F 6% 29.90 in 10.0 mi WSW 13.8 mph 23.0 mph N/A   Clear
1:55 PM 93.0 °F 17.1 °F 6% 29.88 in 10.0 mi West 18.4 mph 23.0 mph N/A   Clear
2:55 PM 93.9 °F 18.0 °F 6% 29.87 in 10.0 mi West 19.6 mph 28.8 mph N/A   Clear
3:55 PM 93.0 °F 21.0 °F 7% 29.86 in 10.0 mi West 21.9 mph 28.8 mph N/A   Clear
4:55 PM 91.0 °F 24.1 °F 9% 29.86 in 10.0 mi West 25.3 mph 31.1 mph N/A   Clear
5:55 PM 89.1 °F 26.1 °F 10% 29.86 in 10.0 mi West 23.0 mph 29.9 mph N/A   Clear
6:55 PM 84.0 °F 27.0 °F 13% 29.88 in 10.0 mi West 21.9 mph 29.9 mph N/A   Clear
8:55 PM 77.0 °F 26.1 °F 15% 29.89 in 10.0 mi West 17.3 mph - N/A   Clear
9:55 PM 75.9 °F 21.9 °F 13% 29.91 in 10.0 mi West 10.4 mph - N/A   Clear
10:55 PM 70.0 °F 19.9 °F 15% 29.92 in 10.0 mi Calm Calm - N/A   Clear
11:55 PM 64.9 °F 21.0 °F 19% 29.91 in 10.0 mi West 5.8 mph - N/A   Clear